Location: Newark
(0.5300°S, 127.4800°E)
Time: 06:04:07
(UTC+00:00)

Transit 4A - Pass Details

Date: 01 October 2019
Orbit: 867 x 978 km, 66.8° (Epoch: 21 October)

Event Time Altitude Azimuth Distance (km) Brightness Sun altitude
Rises 10:29:22 0° 353° (N) 3,468 10.9 -17.3°
Reaches altitude 10° 10:31:59 10° 359° (N) 2,520 10.1 -18.0°
Maximum altitude 10:37:29 44° 71° (ENE) 1,181 8.0 -19.3°
Enters shadow 10:39:46 30° 120° (ESE) 1,503 8.5 -19.9°
